DW1693 Everett WA US current weather conditions

sailwx.info

Wind from 329 at 0 knots gusting 0

Air temperature 10.6° C
Dewpoint 6.3° C

Last reported at 2020-Jun-03 10:04 UTC.
Time now 2020-Jun-03 10:48 UTC

Location: N 47°54' W 122°11'.
View on Google Maps.

See reports from other nearby stations

  
Tides and Currents Weather Stations Pressure Air Temp Water Temp Dewpoint Dewpoint Depression Visibility Wind Speed Wind Dir Waves Ship Positions
date/time (UTC)wind fromknots sea level pressurealtimeterstation pressurevisibilityair tempwater tempwave heightnotes
2020-Jun-03 10:04 329 0 gusting 0 10.6
2020-Jun-03 09:34 049 11.1
2020-Jun-03 09:04 346 11.1
2020-Jun-03 08:44 346 11.1
2020-Jun-03 08:24 346 11.1
2020-Jun-03 08:14 346 11.1
2020-Jun-03 08:04 346 11.1
2020-Jun-03 07:34 346 11.7
2020-Jun-03 07:24 346 11.7
2020-Jun-03 07:14 346 11.7
2020-Jun-03 07:04 346 11.7
2020-Jun-03 06:54 346 12.2
2020-Jun-03 06:34 346 12.2
2020-Jun-03 06:14 346 12.2
2020-Jun-03 06:04 346 12.2
2020-Jun-03 05:44 331 12.2
2020-Jun-03 05:34 331 12.2
2020-Jun-03 04:54 331 12.8
2020-Jun-03 04:44 331 12.8
2020-Jun-03 04:14 331 12.8
2020-Jun-03 04:04 331 13.3
2020-Jun-03 03:54 331 13.3
2020-Jun-03 03:44 331 13.3
2020-Jun-03 03:34 074 13.3
2020-Jun-03 03:14 074 13.9
2020-Jun-03 02:14 074 13.9
2020-Jun-03 01:54 106 13.9
2020-Jun-03 01:44 106 13.9
2020-Jun-03 01:14 227 1 gusting 2 13.9
2020-Jun-03 01:04 171 0 gusting 2 13.9
2020-Jun-03 00:54 027 0 gusting 3 13.3
2020-Jun-03 00:24 281 12.8
2020-Jun-02 23:24 271 0 gusting 2 11.7
2020-Jun-02 23:04 269 11.7
2020-Jun-02 22:54 048 11.7
2020-Jun-02 22:44 114 12.2
2020-Jun-02 22:24 065 12.8
2020-Jun-02 22:14 017 13.3
2020-Jun-02 22:04 119 13.9
2020-Jun-02 21:54 322 1 gusting 2 14.4
2020-Jun-02 21:24 298 1 gusting 2 15.0
2020-Jun-02 21:14 285 0 gusting 2 15.0
2020-Jun-02 20:54 013 15.0
2020-Jun-02 20:34 103 1 gusting 1 16.1
2020-Jun-02 20:24 214 16.7
2020-Jun-02 20:14 225 17.2
2020-Jun-02 20:04 123 0 gusting 2 17.8
2020-Jun-02 19:44 286 18.3
2020-Jun-02 19:14 151 0 gusting 2 18.3
2020-Jun-02 19:04 141 17.8
2020-Jun-02 18:54 175 0 gusting 3 17.8
2020-Jun-02 18:34 085 1 gusting 2 17.8
2020-Jun-02 18:14 187 17.8
2020-Jun-02 17:54 169 0 gusting 2 16.7
2020-Jun-02 17:14 088 15.6
2020-Jun-02 16:54 309 15.0
2020-Jun-02 16:44 055 1 gusting 2 14.4
2020-Jun-02 16:34 101 13.9
2020-Jun-02 16:24 066 2 gusting 3 13.3
2020-Jun-02 16:04 150 0 gusting 2 12.2
2020-Jun-02 15:24 083 11.1
2020-Jun-02 14:54 355 10.6
2020-Jun-02 14:44 355 10.0
2020-Jun-02 14:24 355 9.4
2020-Jun-02 14:14 355 9.4
2020-Jun-02 14:04 329 9.4
2020-Jun-02 13:54 329 8.9
2020-Jun-02 13:44 329 8.3
2020-Jun-02 13:34 329 8.3
2020-Jun-02 13:24 329 7.8
2020-Jun-02 13:04 329 7.8
2020-Jun-02 12:54 329 7.8
2020-Jun-02 12:34 329 7.8
2020-Jun-02 12:14 329 7.8
2020-Jun-02 12:04 329 8.3
2020-Jun-02 11:54 329 8.3
2020-Jun-02 11:44 329 8.3
2020-Jun-02 11:24 329 8.9
2020-Jun-02 11:04 328 8.9
2020-Jun-02 10:54 328 8.9
2020-Jun-02 10:44 328 8.9
2020-Jun-02 10:34 328 8.9
2020-Jun-02 10:14 336 9.4
2020-Jun-02 10:04 302 8.9
2020-Jun-02 09:54 350 8.9
2020-Jun-02 09:44 348 8.9
2020-Jun-02 09:34 090 8.9
2020-Jun-02 09:24 090 8.9
2020-Jun-02 09:14 090 8.9
2020-Jun-02 09:04 090 8.3
2020-Jun-02 08:44 090 8.9
2020-Jun-02 08:34 090 8.9
2020-Jun-02 08:24 090 8.9
2020-Jun-02 08:04 090 9.4
2020-Jun-02 07:44 090 10.0
2020-Jun-02 07:34 090 10.0
2020-Jun-02 07:24 090 10.6
2020-Jun-02 07:14 090 10.6
2020-Jun-02 06:44 318 11.1
2020-Jun-02 06:34 060 11.1
2020-Jun-02 06:24 036 0 gusting 1 11.1
2020-Jun-02 06:04 049 11.7
2020-Jun-02 05:54 098 11.7
2020-Jun-02 05:44 109 11.7
2020-Jun-02 05:24 044 12.2
2020-Jun-02 05:14 018 12.2
2020-Jun-02 04:54 115 12.2
2020-Jun-02 04:34 103 12.8
2020-Jun-02 04:04 041 13.3
2020-Jun-02 03:54 041 13.3
2020-Jun-02 03:44 041 13.9
2020-Jun-02 03:34 041 14.4
2020-Jun-02 03:14 053 15.0
2020-Jun-02 03:04 188 15.6
2020-Jun-02 02:54 059 15.6
2020-Jun-02 02:34 022 0 gusting 2 16.1
2020-Jun-02 02:14 298 0 gusting 2 16.7
2020-Jun-02 01:54 088 16.7
2020-Jun-02 01:44 085 17.2
2020-Jun-02 01:24 071 17.2
2020-Jun-02 00:54 093 17.8
2020-Jun-02 00:34 115 0 gusting 2 18.3
2020-Jun-02 00:24 341 1 gusting 3 18.3
2020-Jun-02 00:04 067 0 gusting 2 18.9
2020-Jun-01 23:44 320 2 gusting 2 19.4
2020-Jun-01 23:34 126 1 gusting 2 20.0
2020-Jun-01 23:24 148 18.9
2020-Jun-01 22:54 306 0 gusting 5 19.4
2020-Jun-01 22:44 321 19.4
2020-Jun-01 22:34 068 0 gusting 4 19.4
2020-Jun-01 22:24 248 19.4
2020-Jun-01 22:04 316 2 gusting 2 19.4
2020-Jun-01 21:24 337 18.9
2020-Jun-01 21:14 061 17.8
2020-Jun-01 20:34 300 0 gusting 3 17.2
2020-Jun-01 19:34 254 16.1
2020-Jun-01 19:14 053 0 gusting 5 17.2
2020-Jun-01 19:04 125 0 gusting 2 16.7
2020-Jun-01 18:54 071 2 gusting 6 16.7
2020-Jun-01 17:54 294 1 gusting 5 15.6
2020-Jun-01 17:44 057 1 gusting 3 15.0
2020-Jun-01 17:34 111 15.0
2020-Jun-01 17:24 103 14.4
2020-Jun-01 16:44 013 13.3
2020-Jun-01 16:34 314 1 gusting 3 13.3
2020-Jun-01 16:14 217 12.8
2020-Jun-01 15:54 290 12.2
2020-Jun-01 15:24 277 0 gusting 1 11.1
2020-Jun-01 15:14 119 10.6
2020-Jun-01 15:04 120 10.0
2020-Jun-01 14:54 139 10.0
2020-Jun-01 14:44 098 10.0
2020-Jun-01 13:44 074 9.4
2020-Jun-01 13:34 074 9.4
2020-Jun-01 13:14 074 9.4
2020-Jun-01 13:04 074 9.4
2020-Jun-01 12:44 074 9.4
2020-Jun-01 12:24 074 9.4
2020-Jun-01 11:54 074 9.4
2020-Jun-01 11:14 236 9.4
2020-Jun-01 10:54 237 10.0
2020-Jun-01 10:44 237 10.0